Location: Atherton
(17.2661°S, 145.4859°E)
Time: 22:49:04
(UTC+10:00)

Transit 2A - Pass Details

Date: 18 June 2025
Orbit: 598 x 948 km, 66.7° (Epoch: 19 July)

Event Time Altitude Azimuth Distance (km) Brightness Sun altitude
Rises 22:49:39 0° 220° (SW) 3,343 - -68.1°
Reaches altitude 10° 22:52:36 10° 233° (SW) 2,339 - -68.8°
Maximum altitude 22:56:47 24° 285° (WNW) 1,503 - -69.7°
Drops below altitude 10° 23:00:40 10° 338° (NNW) 2,140 - -70.6°
Sets 23:03:16 0° 353° (N) 2,992 - -71.2°
